Theta_e
337 337 338 339 340 340 341 343 344 343 345 346 347 347 347 349 351 354 353 355 355 356 358 358 358 358 358 358 359 360 360 360 360 359 358 359 360 360 360 360 360 361 361 361 363 364 367 368 368 368 368 367 366 365 364 365 362 360 358 357 355 354 354
335 335 337 338 339 340 342 344 345 344 344 345 346 348 347 349 352 352 352 355 356 356 357 357 358 358 358 359 360 361 360 360 360 360 360 360 361 362 362 362 361 362 363 363 364 367 368 368 368 368 367 367 366 367 364 364 362 360 357 356 354 353 354
334 335 336 338 338 339 342 343 345 344 344 344 345 346 347 350 352 352 353 353 355 356 357 357 358 358 358 359 360 360 360 360 360 359 359 357 358 357 360 362 362 361 362 364 365 366 368 367 368 368 368 366 365 365 365 364 362 360 358 357 354 353 353
333 334 336 338 340 341 343 343 343 343 344 344 344 345 347 351 352 354 354 353 354 355 355 357 357 357 358 359 359 359 360 361 361 359 358 358 358 359 360 361 362 361 361 362 363 364 365 366 367 367 367 367 367 367 365 363 362 360 358 357 354 354 354
333 334 335 336 338 340 340 341 342 343 343 343 344 347 349 350 350 352 353 353 353 354 355 356 356 358 359 359 358 359 359 360 360 360 360 360 361 361 360 359 359 360 360 362 364 364 365 366 365 366 366 366 366 366 365 364 362 361 358 357 355 354 353
329 332 334 335 336 337 339 340 341 342 342 342 343 345 345 346 348 348 349 352 352 353 356 357 356 357 357 358 358 358 360 361 362 362 361 361 361 360 359 359 359 359 359 361 362 362 364 364 364 364 364 364 364 364 364 363 362 360 359 357 355 354 352
329 331 333 333 335 336 338 339 340 341 342 343 343 345 345 344 345 347 348 350 351 352 353 353 355 356 357 358 358 359 359 359 360 361 360 360 361 360 359 360 360 360 360 363 361 362 362 363 363 364 364 363 364 363 364 363 361 360 359 357 355 355 354
332 330 333 334 335 335 337 339 340 341 342 343 342 342 343 343 344 345 347 348 349 350 351 351 353 355 356 358 358 358 358 358 359 360 360 359 359 359 359 360 360 361 362 361 362 362 361 363 363 364 364 363 364 364 364 363 363 360 359 357 355 354 353
333 335 332 331 333 334 335 338 340 340 343 343 342 343 342 343 343 344 346 347 348 349 350 350 352 355 357 357 357 358 358 358 359 359 359 358 358 357 357 358 360 361 360 360 359 362 361 362 362 364 364 364 364 365 364 364 362 361 358 357 355 354 352
333 335 336 333 333 333 336 338 341 344 345 344 344 346 343 343 344 344 345 346 347 348 349 350 351 353 356 356 356 358 358 358 359 358 357 356 357 356 357 357 358 360 360 359 359 359 362 362 363 364 364 363 363 364 364 363 362 360 359 358 356 355 353
332 337 338 335 334 335 336 335 339 341 343 344 344 344 344 344 343 343 344 345 345 347 349 350 352 352 353 354 354 355 357 357 357 357 356 356 356 356 356 356 357 358 358 358 358 359 361 361 363 363 363 361 362 363 363 363 362 360 358 357 357 356 354
333 335 339 339 339 338 335 337 339 341 343 344 345 344 344 345 344 343 344 345 346 346 348 349 350 351 352 352 352 354 355 357 357 356 356 356 356 356 356 357 358 357 358 358 357 358 358 360 360 361 362 362 362 363 363 363 363 361 359 357 356 355 354
330 335 338 336 340 339 340 342 340 340 342 343 343 345 344 343 343 343 346 346 346 347 348 350 350 352 352 352 351 354 355 356 357 357 356 357 357 357 357 357 357 357 357 358 357 357 357 358 360 361 361 362 361 361 362 363 362 361 360 358 357 356 354
331 330 334 338 339 340 340 338 339 340 342 344 343 345 344 344 344 345 346 345 345 346 347 349 351 352 352 351 352 355 356 356 358 358 358 357 359 359 358 357 358 358 359 359 358 357 357 357 358 360 360 361 361 361 362 362 362 361 360 359 357 355 354
325 327 333 333 338 342 341 340 341 340 342 343 343 344 344 343 344 346 347 347 348 346 348 351 352 352 352 352 352 356 358 359 359 359 359 358 359 359 359 358 359 360 359 360 358 358 358 358 358 359 359 360 361 361 361 360 360 360 359 358 357 356 354
321 323 326 332 336 337 342 342 342 343 342 342 343 344 343 344 345 345 345 345 346 347 347 352 354 353 352 352 354 357 357 358 359 359 360 359 359 360 359 358 359 358 359 359 359 359 359 360 359 359 359 359 360 361 360 359 360 347 335 339 355 356 355
326 327 326 332 337 338 341 343 343 344 344 343 342 344 343 343 346 345 343 344 344 347 348 350 351 353 352 353 356 356 358 358 358 359 358 358 359 359 359 359 359 359 359 359 359 359 360 360 359 358 359 359 359 359 359 359 357 334 329 331 335 351 355
325 329 330 329 332 335 338 339 341 342 342 340 342 344 345 344 346 345 343 344 345 345 347 349 351 351 354 354 355 357 357 357 358 358 357 358 358 359 359 359 359 359 359 359 359 360 360 359 359 360 359 358 358 358 358 359 340 329 327 329 329 335 354
329 329 330 331 331 334 333 335 338 342 341 341 342 342 343 345 344 346 346 347 347 349 347 348 348 352 354 356 356 357 357 358 358 357 357 358 358 359 360 359 359 359 359 358 360 360 360 360 359 359 360 359 359 357 358 359 337 328 325 326 327 328 340
334 336 336 335 332 330 333 337 337 339 341 344 342 340 342 345 345 347 348 347 351 349 349 349 349 351 353 356 356 357 358 358 357 357 357 358 358 359 359 358 358 358 358 358 359 359 359 359 359 360 360 359 358 357 359 359 335 326 323 323 323 326 333
343 343 344 344 343 340 337 339 341 342 343 341 340 342 343 344 344 347 347 349 349 350 350 351 351 351 354 355 357 358 357 358 358 358 358 359 359 359 358 357 358 358 357 357 358 359 359 358 358 359 358 358 358 357 356 358 329 323 321 320 320 322 326
341 341 342 344 344 345 347 342 339 339 341 343 342 341 342 342 343 343 344 347 347 349 352 353 353 353 355 355 356 356 358 357 358 358 359 359 358 358 357 358 358 358 359 358 358 360 360 360 359 359 359 358 358 356 356 356 326 322 320 319 319 321 338
339 341 340 341 342 344 347 349 345 340 344 345 343 342 342 343 343 343 344 344 345 350 348 350 352 353 355 354 355 355 356 357 357 357 358 358 358 357 357 357 358 359 360 358 358 358 358 359 358 360 359 357 357 357 356 357 333 319 317 317 317 322 344
340 340 340 340 342 344 348 350 349 343 341 342 343 343 345 345 344 347 348 345 346 345 346 349 351 354 355 354 355 356 357 358 358 357 357 358 357 357 357 358 360 360 360 358 357 355 357 358 359 360 360 357 357 357 357 357 336 315 315 316 315 326 345
339 339 341 341 341 342 344 348 348 342 342 344 343 347 351 348 345 345 347 348 344 345 347 350 353 353 353 354 356 357 357 358 358 358 357 357 357 357 358 358 359 360 361 358 358 358 359 359 358 359 360 360 358 344 353 358 339 314 316 315 314 328 348
338 338 340 342 343 344 346 350 353 351 347 347 353 350 352 348 347 346 349 348 347 347 350 352 351 355 358 357 359 359 359 358 359 359 357 357 358 358 358 360 359 360 359 358 358 358 358 358 358 358 359 359 358 358 357 357 354 329 315 314 313 320 347
338 338 339 341 342 345 346 347 346 345 346 349 352 351 349 348 350 351 352 353 351 351 352 356 357 357 357 359 357 358 358 358 358 357 357 358 359 359 359 360 359 359 359 357 357 358 357 357 358 357 358 359 358 358 358 357 357 336 314 313 313 316 330
338 339 341 342 342 343 344 344 344 344 344 346 349 351 351 352 353 352 354 353 352 354 355 356 358 358 358 357 357 356 356 357 359 360 359 360 361 360 359 360 360 360 361 359 359 358 357 357 358 357 356 357 358 359 358 351 341 345 316 314 312 314 320
337 337 339 341 341 341 342 341 340 340 342 345 347 351 353 350 352 352 352 355 355 357 356 355 356 358 358 358 358 358 358 360 360 359 360 361 362 361 359 361 361 361 362 360 359 358 357 357 357 357 356 356 358 357 358 361 352 327 327 314 312 312 316
337 338 339 340 341 341 341 340 339 339 341 343 346 349 353 356 353 353 351 348 351 356 361 360 354 357 357 357 357 357 358 359 359 360 361 362 362 361 360 360 360 360 361 360 359 357 355 356 356 355 354 353 354 357 356 357 356 326 320 321 312 312 314
336 337 338 339 339 341 340 338 338 338 339 342 343 345 348 351 349 347 346 346 352 356 360 361 359 355 354 354 355 357 356 357 358 359 361 361 362 360 360 361 362 359 361 360 358 357 355 355 355 355 353 353 353 355 356 357 351 335 323 317 313 313 313
335 336 337 338 339 339 339 340 339 338 338 339 342 343 344 345 346 343 343 349 352 355 357 360 360 358 355 355 355 355 355 355 355 357 359 360 361 361 362 361 360 358 360 359 357 356 356 355 354 353 354 353 354 354 356 361 349 339 331 321 317 316 314
333 335 336 336 338 339 339 339 338 337 337 337 340 342 342 343 343 344 345 347 350 354 357 358 359 358 358 358 356 356 355 355 352 353 356 359 359 360 360 360 360 360 358 358 357 356 355 354 354 354 353 352 353 356 358 354 346 340 334 329 327 327 324
333 334 336 337 338 338 339 339 338 337 337 337 339 341 342 342 342 343 344 345 347 350 351 351 352 353 355 356 358 358 358 357 352 351 353 354 355 354 356 358 359 358 357 357 357 356 355 355 353 353 353 353 353 356 353 349 342 337 335 331 331 330 332
334 335 336 336 337 338 338 338 337 337 337 337 339 341 341 341 342 343 343 344 347 348 347 346 348 349 350 352 352 351 352 355 356 356 355 355 357 356 356 354 354 356 357 360 361 361 358 356 355 355 356 355 354 355 354 346 340 339 327 332 324 329 337
334 334 336 337 338 337 337 337 337 337 337 337 339 339 339 340 340 341 342 343 344 345 345 346 346 346 345 345 345 345 347 348 349 350 349 350 350 351 352 344 327 339 353 355 338 329 327 329 354 359 359 357 359 360 355 349 345 328 315 314 314 316 319
333 333 334 336 335 335 335 337 338 337 337 337 339 339 340 340 341 341 342 342 343 343 343 343 342 341 340 339 338 336 339 339 339 340 342 342 343 345 344 346 349 320 313 318 323 323 316 311 313 320 329 350 357 352 334 334 326 312 310 310 310 311 311
332 333 333 334 334 334 334 335 335 335 335 337 338 338 339 339 340 341 341 343 343 343 342 342 341 339 339 339 339 338 339 340 339 339 340 340 342 343 342 342 342 345 325 315 315 314 310 308 307 306 307 314 329 343 346 323 309 308 309 308 309 309 308
Wind_Speed
20 19 19 18 18 20 20 19 19 18 18 17 17 20 20 18 17 15 15 16 19 18 17 17 17 16 18 16 17 15 15 13 12 13 12 12 11 11 12 11 12 11 11 10 10 10 9 9 10 10 9 10 10 10 11 8 8 8 8 8 7 6 7
17 19 20 20 19 19 20 19 18 17 17 18 18 19 19 19 17 17 17 17 19 19 18 18 18 17 18 17 15 16 16 16 14 12 12 11 10 10 11 11 12 11 11 11 10 9 9 10 10 10 10 10 10 10 10 9 9 9 8 8 8 7 6
16 18 19 19 20 19 20 18 17 18 19 18 19 18 19 18 18 19 17 18 19 19 17 19 19 18 17 16 16 17 17 16 15 15 15 14 15 16 13 12 12 11 12 11 10 9 9 10 10 10 10 10 10 12 10 9 10 10 9 9 8 8 8
14 17 20 21 21 20 19 19 21 21 19 20 21 22 21 19 18 17 17 19 20 19 20 20 19 19 17 17 17 16 17 17 17 16 17 15 15 14 12 12 11 11 10 12 11 10 9 10 11 10 11 10 10 9 10 11 10 10 10 9 8 9 8
14 15 15 16 19 17 18 18 20 21 22 23 22 21 19 19 19 18 18 19 20 21 22 21 18 17 15 16 14 14 16 18 16 15 15 14 14 13 13 14 13 13 13 12 11 10 10 10 11 10 11 11 11 10 10 10 10 10 9 10 9 9 8
14 14 15 17 19 19 21 22 24 24 23 23 22 21 20 21 19 22 22 21 20 20 17 17 17 17 17 18 16 15 15 15 15 15 14 14 14 13 14 14 14 14 14 13 11 11 12 11 12 12 12 12 12 12 11 11 11 10 10 10 9 9 9
12 15 15 16 18 19 22 22 23 24 23 22 21 19 20 19 21 22 21 21 22 21 21 21 20 18 17 15 16 16 17 16 16 17 15 15 15 14 14 13 13 13 13 11 12 11 12 13 13 13 13 13 12 13 12 12 11 10 10 10 10 9 10
11 12 16 16 18 20 20 20 21 22 20 17 18 18 20 19 19 21 21 21 22 21 20 22 20 18 17 16 16 18 18 18 16 16 15 16 15 15 14 14 13 13 12 13 12 12 13 14 13 12 13 13 13 13 13 12 12 11 10 10 11 10 8
9 10 13 16 16 16 17 18 19 19 18 19 20 18 21 20 19 20 22 21 20 21 22 22 22 19 17 17 16 19 18 17 17 16 18 18 16 17 17 15 14 13 14 14 13 13 13 13 14 13 13 13 13 13 13 12 12 11 11 11 12 12 11
4 6 8 10 11 13 13 14 12 10 12 14 15 14 17 17 18 19 20 20 20 23 24 22 20 18 17 17 18 19 18 17 17 18 19 19 17 18 19 17 15 14 15 15 13 13 13 13 14 13 13 13 13 13 13 13 12 12 12 12 13 12 12
3 5 5 9 11 12 11 13 14 16 16 16 17 15 16 16 17 18 19 20 21 21 22 21 18 18 19 20 21 20 18 19 18 19 20 20 18 20 19 18 16 15 17 15 15 15 13 13 13 13 13 13 14 14 14 14 14 13 13 12 12 13 12
4 6 8 9 9 10 14 15 14 14 15 14 14 15 16 17 17 18 18 20 21 20 20 20 18 19 19 20 20 18 20 19 19 20 21 21 20 20 20 18 17 16 16 17 17 16 15 14 13 13 14 15 15 15 14 14 13 14 14 14 13 12 12
5 6 8 10 11 11 10 9 14 16 17 15 16 16 15 17 18 18 16 18 20 18 18 18 18 18 18 20 21 18 19 19 20 19 20 19 18 17 18 18 18 18 17 17 18 17 16 16 15 13 14 15 15 15 15 14 14 13 13 13 13 13 13
5 6 8 7 9 11 13 15 16 15 15 15 14 15 15 16 17 17 16 18 18 18 17 15 17 17 16 18 18 17 18 18 18 18 18 17 17 17 18 18 17 17 16 16 18 18 18 17 16 14 14 15 15 15 14 13 13 13 13 13 13 12 13
6 8 6 8 10 10 11 12 14 15 14 15 15 16 17 16 16 16 14 14 14 17 18 16 15 16 17 17 18 17 16 15 15 15 16 16 16 16 17 16 16 15 15 15 16 15 17 17 16 15 15 15 15 15 14 13 13 12 12 13 13 12 13
7 8 8 9 10 12 12 13 13 13 14 14 15 16 16 15 16 17 17 17 17 17 17 14 14 15 17 18 17 14 14 14 14 15 16 16 16 16 16 16 16 16 16 16 16 15 15 16 16 16 16 16 15 14 13 13 11 13 18 15 13 13 12
5 5 7 8 8 10 11 11 11 11 13 14 17 18 17 17 18 16 19 17 19 17 17 16 16 16 18 17 15 13 13 13 14 14 16 17 16 16 17 17 16 16 16 16 16 17 15 15 17 16 15 16 16 16 14 13 12 17 17 18 18 14 13
7 7 5 5 7 7 9 11 11 13 15 17 17 16 15 16 15 15 17 17 18 18 17 17 16 18 16 16 14 14 15 15 15 15 16 16 17 17 17 16 16 16 16 16 17 16 15 15 16 15 15 14 16 17 15 14 14 17 19 19 19 17 13
7 7 7 5 7 8 10 12 13 14 15 14 14 15 18 16 15 16 17 16 17 13 16 17 18 16 16 13 14 15 14 14 15 16 16 17 17 16 15 17 17 17 16 18 16 14 16 16 16 16 16 16 16 17 16 14 15 18 20 20 20 20 17
5 6 6 6 7 9 9 9 10 12 15 14 16 19 16 14 14 13 12 13 11 14 16 17 16 16 15 14 14 15 15 15 16 17 17 16 16 16 16 17 18 18 17 15 15 16 16 17 18 16 17 17 18 19 15 15 15 21 21 21 21 21 18
4 4 5 6 6 7 7 9 10 11 11 14 16 13 11 12 13 10 10 10 13 14 15 15 16 16 14 14 14 14 15 16 17 17 16 15 16 16 17 18 17 17 16 15 16 17 17 17 19 19 20 20 19 18 18 16 16 22 22 22 22 22 19
3 3 4 5 7 8 8 9 10 11 11 10 10 12 13 13 13 13 13 13 13 12 12 11 11 11 10 12 13 15 15 16 16 15 14 15 15 16 17 17 17 17 15 15 15 15 15 15 16 18 18 18 21 21 20 19 18 22 23 23 22 22 13
3 3 4 6 7 8 9 9 10 10 7 8 11 12 13 11 13 12 12 14 13 12 13 12 12 12 12 14 15 16 16 15 15 15 15 15 16 17 18 18 17 16 14 15 16 16 17 17 17 16 18 20 22 22 17 18 17 22 23 23 24 18 12
2 2 3 5 6 6 7 8 7 8 8 10 11 12 11 12 13 12 11 13 13 15 15 14 14 13 14 15 16 17 16 15 15 16 16 16 18 20 18 18 15 16 15 17 17 17 18 17 15 16 17 21 23 21 19 18 17 25 24 25 25 21 15
1 1 3 4 6 7 7 7 5 5 6 7 9 9 10 12 14 14 13 14 15 15 15 15 15 15 17 17 16 15 15 14 13 13 15 16 18 17 17 16 16 14 12 15 16 17 15 15 16 16 16 18 20 21 20 17 15 24 24 26 25 21 14
3 3 4 5 6 5 5 6 6 8 6 4 2 3 9 11 12 13 12 12 12 13 14 15 15 13 11 10 10 10 11 12 14 15 16 17 16 16 16 15 14 15 16 17 15 14 14 15 16 19 16 17 21 17 17 21 14 19 24 25 26 28 17
3 2 4 6 6 6 7 9 10 9 8 6 4 1 6 9 9 9 8 8 9 10 7 2 2 3 4 5 7 8 9 10 13 16 16 15 13 12 12 12 14 14 13 15 14 13 13 17 16 18 18 16 20 18 20 20 17 16 25 25 27 28 24
4 5 6 7 8 8 9 10 11 11 11 9 6 4 2 5 7 7 7 7 8 5 3 3 5 7 8 10 11 13 15 15 14 14 13 12 11 12 13 12 13 13 13 13 13 16 19 18 15 17 18 17 16 15 19 18 18 13 24 27 27 27 29
6 7 7 8 10 10 9 10 11 12 10 9 9 6 4 6 6 6 6 6 5 5 2 1 5 7 8 9 10 11 12 12 13 12 10 11 12 12 14 12 12 13 12 13 14 17 18 17 17 16 16 17 11 14 17 13 12 19 18 24 26 26 26
7 8 8 9 9 9 10 10 10 10 11 10 10 10 8 8 9 8 8 7 3 3 2 2 3 5 7 8 9 9 10 10 11 11 11 11 10 12 13 12 13 13 13 15 14 15 18 16 16 17 18 18 15 12 12 12 10 15 23 21 26 25 28
8 8 8 9 10 10 10 10 11 11 11 11 11 11 11 9 11 11 10 5 4 4 3 2 2 4 6 7 8 8 8 9 9 10 11 10 11 12 12 13 12 13 13 14 16 17 18 19 17 18 19 18 18 17 14 12 8 9 16 25 24 25 26
9 8 8 9 10 10 10 10 10 11 12 11 11 11 11 10 11 12 8 6 6 5 5 4 3 3 2 4 5 6 7 8 9 9 9 10 10 11 11 12 12 13 12 12 15 17 19 18 18 16 17 17 19 19 17 10 9 10 14 17 22 22 26
10 9 9 10 9 10 9 9 10 11 12 11 10 10 10 10 10 9 8 8 7 6 6 6 6 5 4 3 2 1 2 5 6 7 7 9 9 10 10 11 11 12 12 14 18 18 17 18 16 14 18 19 17 12 9 7 9 10 12 11 12 11 16
10 11 9 9 10 10 11 11 11 11 11 11 9 9 10 10 10 9 8 8 7 7 7 8 7 6 6 5 3 2 1 1 1 2 4 5 7 8 9 10 11 13 16 16 17 17 17 16 16 17 20 18 18 12 13 11 12 14 16 16 15 15 13
10 11 10 11 10 11 10 11 12 12 12 11 10 10 11 11 10 9 9 8 6 6 7 7 6 6 6 5 5 4 3 2 1 2 3 3 4 5 6 8 9 11 13 16 15 15 17 18 20 20 22 22 20 16 11 12 14 17 21 23 26 25 21
13 14 14 12 12 14 15 14 14 14 13 12 10 11 11 11 11 9 9 8 7 6 6 6 5 6 6 5 5 4 4 4 3 4 3 3 4 4 5 5 6 8 9 11 12 15 19 18 19 19 19 19 17 17 16 16 17 23 23 26 27 28 29
12 13 13 13 14 15 14 14 15 16 15 13 11 11 11 11 10 10 9 9 8 8 8 7 8 8 7 7 6 6 6 5 5 4 4 2 1 1 3 4 5 10 13 15 17 18 19 19 23 25 25 20 17 19 25 26 20 18 25 27 29 29 27
12 12 11 11 13 14 15 15 15 16 15 12 12 12 11 12 12 11 11 10 9 9 9 9 8 8 7 7 6 6 5 5 5 4 3 1 1 2 2 3 4 5 9 15 17 18 18 18 19 20 22 26 26 20 14 18 22 28 29 29 30 30 26
Wind_Direction
199 202 204 202 199 200 201 198 195 197 197 194 196 197 195 193 192 187 186 189 194 197 192 190 192 192 196 198 198 198 199 197 197 198 199 203 202 199 195 197 199 201 204 207 207 205 202 192 192 194 195 202 209 212 213 191 191 193 187 187 191 195 197
200 203 203 200 199 202 203 198 192 197 198 196 196 195 197 193 186 189 192 188 191 195 192 192 192 195 195 197 197 197 198 200 199 197 199 201 199 200 197 197 198 201 201 207 206 202 193 192 193 195 198 199 209 210 206 188 194 190 188 184 190 192 193
201 202 201 200 203 203 202 197 194 198 198 197 196 194 195 192 187 190 187 188 191 193 192 192 195 195 194 195 195 198 199 199 199 198 199 203 204 205 202 200 200 202 206 207 207 204 197 198 196 199 200 202 207 211 199 190 194 192 188 181 189 193 190
201 200 199 199 199 199 195 196 197 200 200 197 194 195 195 191 189 188 188 190 191 190 193 195 194 195 194 194 196 198 199 200 201 201 204 205 204 202 200 199 201 205 205 207 208 205 201 197 196 199 197 202 203 199 193 197 197 194 190 183 192 195 192
204 201 199 199 203 202 200 199 200 201 202 201 198 195 191 188 188 188 190 193 194 195 197 194 193 195 195 194 196 198 199 200 200 202 203 203 202 195 197 200 200 203 206 207 203 200 197 196 200 198 199 204 205 199 195 195 198 191 189 185 195 194 196
201 193 197 200 202 202 200 202 202 201 201 201 199 195 196 193 192 194 194 192 195 197 194 192 194 193 194 195 197 198 198 200 201 201 201 200 197 197 201 202 203 204 206 205 202 204 201 203 204 202 203 205 207 206 201 197 199 193 190 187 196 194 197
196 194 196 201 203 202 201 203 204 204 204 203 200 194 192 190 192 195 193 194 194 191 188 190 193 193 196 195 199 197 195 197 198 202 203 204 202 203 204 202 203 204 207 202 205 202 203 204 205 204 204 206 205 206 200 196 196 192 189 189 193 196 194
203 195 199 200 202 201 201 201 202 204 201 198 197 197 191 194 193 193 195 196 194 195 194 196 195 195 193 193 195 197 198 201 201 202 204 205 204 204 204 202 201 201 200 203 202 201 205 204 205 204 203 206 204 203 201 195 193 191 189 191 193 195 192
210 196 202 207 206 206 204 201 200 199 193 188 192 191 191 193 193 193 195 195 193 194 196 196 196 192 187 189 193 197 199 199 199 199 201 203 204 206 205 205 203 200 202 206 209 205 207 206 205 201 200 204 205 202 203 198 195 195 192 193 191 193 195
209 186 204 209 207 207 206 203 190 189 192 196 198 193 190 190 193 194 194 194 193 196 196 195 195 191 187 189 195 196 196 197 199 199 202 204 206 207 208 207 205 201 203 205 208 207 204 207 204 200 197 202 206 205 204 200 197 195 196 194 193 194 194
205 207 193 202 201 200 199 199 192 197 197 196 196 192 190 189 190 193 195 194 196 198 196 194 193 191 189 191 196 196 197 199 199 201 204 206 206 208 208 208 207 203 203 204 208 209 203 204 204 202 199 203 207 208 207 203 198 195 198 198 196 196 196
192 199 207 202 197 190 202 204 200 197 196 196 192 191 193 195 193 194 194 194 195 196 193 194 191 192 188 190 195 196 197 198 200 203 204 205 207 207 206 206 206 204 202 202 207 208 209 204 202 202 202 204 207 209 209 204 199 195 196 198 196 196 199
216 205 206 204 196 202 204 204 205 200 197 194 191 187 190 192 194 195 191 194 196 196 192 190 188 187 185 189 195 195 197 195 198 199 202 202 204 204 204 206 206 206 205 201 206 207 210 209 206 202 203 204 207 210 209 204 201 196 195 196 196 195 197
231 220 216 204 203 201 202 208 206 201 197 192 191 189 191 191 192 192 189 194 195 193 191 186 184 180 184 190 195 196 195 195 195 196 198 199 199 201 203 205 206 206 205 202 204 208 210 211 207 204 202 205 208 210 209 206 202 198 195 195 195 194 196
232 231 220 210 213 210 211 209 209 205 198 197 190 188 191 191 194 194 194 194 188 193 194 186 177 179 186 189 194 195 190 190 193 194 194 196 197 198 201 203 204 204 203 203 205 208 211 211 211 206 205 207 208 209 208 209 206 199 194 194 195 196 197
221 230 224 219 216 213 213 213 206 202 202 199 195 195 193 193 194 193 191 191 188 192 195 178 176 183 192 196 198 193 192 191 192 192 192 194 198 199 200 204 205 205 203 204 204 206 207 211 211 210 205 204 207 207 207 209 208 198 189 190 192 194 198
254 231 218 228 228 224 223 218 207 197 197 198 200 199 197 197 197 194 196 192 191 190 188 182 188 188 195 200 194 188 189 189 193 191 194 198 201 200 201 204 205 208 208 208 207 207 206 207 210 210 210 207 206 207 210 209 208 189 186 192 193 194 197
264 273 277 250 245 236 232 226 212 202 201 200 200 197 197 199 195 189 196 190 191 190 186 187 187 192 197 200 193 188 189 192 190 193 197 196 200 199 200 203 205 207 206 204 204 205 206 207 208 210 211 212 212 213 212 214 203 181 186 192 194 197 199
279 287 285 275 259 245 236 229 219 210 206 203 197 196 201 196 190 192 195 189 190 176 183 187 191 193 199 191 188 190 189 188 190 195 196 198 197 197 197 200 204 206 205 207 205 204 206 208 208 211 211 212 213 217 215 217 188 181 184 191 194 198 202
262 278 287 280 268 261 253 233 231 221 211 206 204 203 201 193 197 200 192 191 167 177 190 189 195 194 195 188 190 190 189 190 194 197 200 196 194 195 198 202 208 209 209 209 206 207 209 210 210 211 213 215 217 223 219 217 183 181 182 189 192 195 198
256 276 290 292 290 283 271 257 237 226 210 211 208 200 187 187 194 185 184 177 181 191 193 195 198 198 193 190 191 188 190 193 196 199 197 193 192 195 200 204 208 207 208 207 207 208 208 209 213 217 218 219 222 223 226 228 184 180 181 187 190 192 196
250 279 287 301 302 296 288 277 259 237 220 207 195 198 194 192 187 186 184 182 188 188 191 190 194 197 187 191 192 195 196 196 198 198 195 194 195 199 203 205 205 205 202 206 211 211 210 211 212 213 212 214 223 223 226 228 187 181 181 184 188 188 194
260 279 295 292 294 295 297 285 273 261 226 200 191 191 188 179 177 180 177 180 188 183 189 191 191 191 188 194 195 198 196 196 197 197 196 196 197 202 205 206 206 205 199 205 209 209 210 212 211 212 212 216 222 220 219 228 186 180 179 181 185 181 197
235 271 308 308 305 305 305 298 273 242 228 199 191 191 178 172 172 170 171 181 181 184 190 191 196 192 191 199 197 196 193 190 189 192 193 195 200 204 206 207 207 206 200 206 209 213 216 213 213 213 213 216 219 214 213 220 180 179 177 182 182 183 193
115 25 3 349 345 341 337 322 288 222 196 201 193 183 169 172 173 176 180 183 187 188 189 193 195 192 198 200 198 194 193 193 192 195 198 203 207 206 206 207 207 206 199 209 214 218 218 216 220 216 214 214 219 211 210 219 188 180 178 182 179 185 195
99 48 30 23 29 26 29 25 60 62 77 96 56 161 178 174 174 183 181 182 183 189 196 203 203 203 203 201 191 187 187 186 191 199 203 207 207 204 206 204 204 206 205 210 215 218 219 223 224 223 219 219 223 218 211 217 206 180 181 181 180 186 191
86 49 39 37 34 49 61 58 59 58 46 28 358 288 187 177 172 178 176 171 186 201 204 154 132 183 193 196 203 201 196 198 204 205 209 209 205 199 203 203 207 208 208 211 213 217 220 224 226 229 230 224 228 226 223 222 213 175 182 183 183 187 189
115 83 67 55 46 51 66 65 62 60 49 37 19 24 167 163 165 167 155 169 184 182 163 161 167 172 181 186 195 199 201 205 206 206 211 212 206 203 208 214 215 214 212 212 213 220 225 227 228 234 236 232 229 227 229 224 209 169 186 184 184 187 193
93 75 62 62 57 53 62 66 62 57 51 42 40 35 72 125 113 104 111 96 54 28 36 177 197 189 193 196 199 203 207 209 208 207 208 209 206 206 211 209 208 210 209 206 212 222 226 228 229 232 236 235 224 229 227 219 201 183 179 186 185 188 195
97 86 76 71 72 69 66 69 65 61 52 46 46 52 53 84 90 87 84 69 49 45 46 72 174 191 197 203 206 212 215 218 215 214 215 213 208 212 216 213 212 213 215 218 218 224 229 232 228 225 230 231 226 219 213 210 200 178 178 182 187 187 194
102 95 87 84 83 83 78 74 72 71 66 60 57 55 64 76 94 93 84 68 70 68 74 86 143 180 196 202 207 210 217 218 219 218 218 218 212 216 217 219 216 220 222 221 223 225 229 229 228 227 228 227 224 222 211 199 171 155 179 180 187 192 194
98 94 93 93 90 89 89 85 80 75 72 65 63 68 68 71 78 81 77 75 70 72 74 88 105 121 168 199 209 212 214 219 222 223 223 219 217 219 218 218 216 220 218 215 223 226 227 230 229 227 226 227 230 227 220 185 160 165 177 184 183 191 197
94 92 90 86 87 91 88 85 80 76 76 74 67 68 67 69 69 71 67 59 55 58 63 72 81 92 95 92 102 141 224 237 238 233 222 217 224 225 224 223 225 228 224 225 231 231 230 234 232 228 231 232 230 222 198 176 180 174 172 168 181 186 194
101 92 84 84 87 86 85 81 79 77 74 71 68 66 67 68 66 65 63 59 58 61 64 63 64 70 67 67 69 75 75 191 82 266 255 248 240 242 241 240 237 239 240 237 235 236 235 233 232 230 233 231 227 205 197 196 187 181 180 183 182 185 181
100 95 95 90 86 85 84 83 79 76 73 68 64 64 65 65 65 65 65 65 68 77 84 90 88 75 69 64 65 65 61 52 320 274 272 269 274 268 268 262 259 251 250 247 244 241 244 241 238 233 235 235 229 212 191 198 197 196 190 181 180 181 182
100 97 92 88 87 86 85 82 82 80 75 70 65 63 63 62 62 60 62 62 63 72 86 96 95 90 80 71 62 48 38 24 28 29 17 358 341 324 309 306 273 270 282 285 271 254 242 234 240 238 239 236 227 212 202 199 205 202 182 180 181 184 180
89 89 88 90 90 86 83 82 81 80 76 73 71 70 67 65 61 60 59 60 63 69 76 86 88 83 79 71 64 60 60 59 53 49 47 48 12 247 254 283 283 265 259 254 261 260 262 261 256 250 240 232 233 226 216 211 202 172 174 178 177 180 179
77 76 77 75 76 78 77 73 71 70 70 70 67 64 60 57 51 49 51 53 59 65 70 73 79 79 78 76 82 86 79 82 82 85 77 72 276 270 268 272 264 252 241 258 273 276 270 266 269 272 274 261 242 225 216 195 166 167 173 178 180 180 176